CW2647 Weather Reports


time (UTC)temp
F
wind
direction
speed
knots
gust
knots
rain 1hr
in
rain 24hr
in
rain mn
in
humidity
%
barometer
mb
20260906173011 93 360 1.7 3.5 0.00 0.00 0.00 63 1009.6
20260906171509 93 360 0.9 4.3 0.00 0.00 0.00 63 1009.7
20260906170005 93 360 0.9 5.2 0.00 0.00 0.00 68 1010.1
20260906164502 91 360 0.0 3.5 0.00 0.00 0.00 70 1010.1
20260906163059 92 360 1.7 4.3 0.00 0.00 0.00 68 1010.3
20260906161556 91 360 0.9 3.5 0.00 0.00 0.00 69 1010.5
20260906160053 90 360 0.9 3.5 0.00 0.00 0.00 71 1010.6
20260906154548 90 360 0.9 3.5 0.00 0.00 0.00 70 1010.7
20260906153044 87 360 0.0 3.5 0.00 0.00 0.00 74 1010.8
20260906151548 86 360 0.9 4.3 0.00 0.00 0.00 73 1010.9
20260906150036 86 360 0.9 4.3 0.00 0.00 0.00 77 1010.9
20260906144534 86 360 0.9 4.3 0.00 0.00 0.00 74 1010.8
20260906143029 83 360 0.9 2.6 0.00 0.00 0.00 80 1010.8
20260906141528 81 360 0.0 0.0 0.00 0.00 0.00 85 1010.9
20260906140023 80 360 0.0 0.0 0.00 0.00 0.00 89 1011.1
20260906134517 78 360 0.0 0.9 0.00 0.00 0.00 91 1011.1
20260906133012 77 360 0.9 1.7 0.00 0.00 0.00 92 1011.1
20260906131509 75 360 0.0 2.6 0.00 0.00 0.00 92 1011.1
20260906130007 74 360 0.0 0.0 0.00 0.00 0.00 92 1011.1
20260906124503 74 360 0.0 0.0 0.00 0.00 0.00 92 1011.3
20260906123000 73 360 0.0 0.9 0.00 0.00 0.00 92 1011.3
20260906121608 73 360 0.0 1.7 0.00 0.00 0.00 92 1011.1
20260906120106 73 360 0.0 0.9 0.00 0.00 0.00 91 1010.9
20260906114554 73 360 0.0 0.9 0.00 0.00 0.00 91 1010.7
20260906113055 72 360 0.0 0.0 0.00 0.00 0.00 91 1010.5
20260906111550 72 360 0.0 0.9 0.00 0.00 0.00 91 1010.4
20260906110050 72 360 0.0 0.0 0.00 0.00 0.00 90 1010.3
20260906104550 72 360 0.0 0.0 0.00 0.00 0.00 91 1010.3
20260906103055 72 360 0.0 0.0 0.00 0.00 0.00 91 1010.1
20260906101548 72 360 0.0 0.0 0.00 0.00 0.00 90 1010.1
20260906100048 72 360 0.0 0.0 0.00 0.00 0.00 90 1010.2
20260906094548 72 360 0.0 0.0 0.00 0.00 0.00 90 1010.1
20260906093053 72 360 0.0 0.0 0.00 0.00 0.00 90 1010.2
20260906091547 72 360 0.0 0.0 0.00 0.00 0.00 89 1010.1
20260906090045 72 360 0.0 0.0 0.00 0.00 0.00 89 1010.0
20260906084545 72 360 0.0 0.0 0.00 0.00 0.00 89 1009.9
20260906083043 73 360 0.0 0.0 0.00 0.00 0.00 89 1009.9
20260906081542 73 360 0.0 0.0 0.00 0.00 0.00 88 1010.0
20260906080040 73 360 0.0 0.0 0.00 0.00 0.00 89 1009.6
20260906074539 73 360 0.0 0.0 0.00 0.00 0.00 88 1009.4
20260906073037 74 360 0.0 0.0 0.00 0.00 0.00 88 1009.5
20260906071538 74 360 0.0 0.0 0.00 0.00 0.00 88 1009.5
20260906070035 74 360 0.0 0.9 0.00 0.00 0.00 88 1009.6
20260906064537 75 360 0.0 0.9 0.00 0.00 0.00 88 1009.8
20260906063031 75 360 0.0 0.0 0.00 0.00 0.00 88 1009.9
20260906061530 75 360 0.0 1.7 0.00 0.00 0.00 88 1010.0
20260906060026 75 360 0.0 1.7 0.00 0.00 0.00 88 1010.4
20260906054534 76 360 0.0 1.7 0.00 0.00 0.00 88 1010.3
20260906053024 76 360 0.0 2.6 0.00 0.00 0.00 88 1010.7
20260906051524 76 360 0.0 0.0 0.00 0.00 0.00 88 1010.6
20260906050023 76 360 0.0 2.6 0.00 0.00 0.00 88 1010.9
20260906044521 77 360 0.9 3.5 0.00 0.00 0.00 88 1011.0
20260906043023 77 12 0.0 1.7 0.00 0.00 0.00 88 1010.5
20260906041519 77 12 0.0 0.9 0.00 0.00 0.00 88 1010.4
20260906040015 77 12 0.0 0.0 0.00 0.00 0.00 87 1010.2
20260906034514 78 360 0.0 0.0 0.00 0.00 0.00 87 1009.9
20260906033013 78 360 0.0 1.7 0.00 0.00 0.00 87 1010.0
20260906031512 78 360 0.0 1.7 0.00 0.00 0.00 86 1010.3
20260906030012 79 360 0.9 1.7 0.00 0.00 0.00 86 1010.4
20260906024512 79 360 0.0 0.0 0.00 0.00 0.00 85 1009.9
20260906023011 79 360 0.0 0.9 0.00 0.00 0.00 85 1010.2
20260906021520 79 360 0.0 0.9 0.00 0.00 0.00 85 1010.5
20260906020017 79 360 0.0 0.9 0.00 0.00 0.00 85 1011.0
20260906014515 79 360 2.6 8.7 0.00 0.00 0.00 85 1011.3
20260906013017 79 9 1.7 4.3 0.00 0.00 0.00 84 1011.3
20260906011508 79 360 0.0 0.0 0.00 0.00 0.00 82 1010.4
20260906010013 80 360 0.0 0.0 0.00 0.00 0.00 81 1009.7
20260906004508 80 360 0.0 0.0 0.00 0.00 0.00 80 1009.7
20260906003015 81 360 0.0 0.0 0.00 0.00 0.00 79 1009.8
20260906001511 81 360 0.0 0.0 0.00 0.00 0.00 79 1009.4
20260906000006 81 360 0.0 0.0 0.00 0.00 0.00 78 1009.2
20260905234505 81 360 0.0 0.0 0.00 0.00 0.00 78 1009.1
20260905233003 82 360 0.0 0.0 0.00 0.00 0.00 78 1009.3
20260905231503 81 360 0.0 0.0 0.00 0.00 0.00 78 1009.4
20260905230004 82 360 0.0 0.0 0.00 0.00 0.00 77 1009.4
20260905224505 82 360 0.0 0.0 0.00 0.00 0.00 75 1009.4
20260905223101 82 360 0.0 0.9 0.00 0.00 0.00 73 1009.3
20260905221603 82 360 0.0 0.9 0.00 0.00 0.00 74 1009.4
20260905220059 82 360 0.0 0.0 0.00 0.00 0.00 74 1009.5
20260905214558 81 360 0.0 0.9 0.00 0.00 0.00 74 1009.6
20260905213100 81 360 0.9 3.5 0.00 0.00 0.00 75 1009.8
20260905211608 80 360 0.0 1.7 0.00 0.00 0.00 77 1009.7
20260905210110 80 360 0.0 1.7 0.00 0.00 0.00 77 1009.8
20260905204558 80 360 0.0 2.6 0.00 0.00 0.00 77 1009.6
20260905203055 81 360 0.0 1.7 0.00 0.00 0.00 75 1009.4
20260905201554 81 360 0.0 1.7 0.00 0.00 0.00 74 1009.5
20260905200056 82 360 0.0 2.6 0.00 0.00 0.00 73 1009.9
20260905194549 83 360 0.0 1.7 0.00 0.00 0.00 72 1010.3
20260905193050 84 360 0.9 5.2 0.00 0.00 0.00 70 1010.5
20260905191548 86 360 0.9 5.2 0.00 0.00 0.00 69 1011.0
20260905190055 89 360 3.5 7.8 0.00 0.00 0.00 68 1011.2
20260905184547 90 360 0.0 3.5 0.00 0.00 0.00 68 1010.9
20260905183054 90 360 1.7 4.3 0.00 0.00 0.00 68 1010.4
20260905181547 92 360 0.0 4.3 0.00 0.00 0.00 67 1010.9
20260905180044 93 360 0.0 4.3 0.00 0.00 0.00 64 1010.9
20260905174541 91 360 0.0 5.2 0.00 0.00 0.00 68 1011.2